Pagina principale
METAR-TAF:

METAR-TAF

Aeroporti :

Monte Malanotte

Prato Nevoso, Italia

latitudine: 44-15N, longitudine: 007-48E, altezza: 1741 m

Osservazione

Il bollettino è stato emesso 27 minuti fa, alle 08:55 UTC
Vento 4 kt da ovest
Temperature 23°C
Umidità 78%
Pressione 1015 hPa

METAR: LIMY 250855Z AUTO 28004KT //// 23/19 Q1015

Ora: 11:22 (09:22 UTC)


TAF: mancante

Osservazioni e previsioni meteorologiche di più di 4000 aeroporti (messaggi METAR e TAF).

Le stazioni disponibili sono rappresentate dai dischi gialli e rossi sulla carta.

Puntare il mouse per vedere il nome della stazione.

Clicca sopra per visualizzare le osservazioni e previsioni meteorologiche.

Per cambiare la mappa : fare clic sui pulsanti verdi con una croce nera per ingrandire, il pulsante verde con un trattino per diminuire, o sulla freccia verde per le mappe adiacenti.


METAR-TAF: